FW0274 Weather Reports


time (UTC)temp
F
wind
direction
speed
knots
gust
knots
rain 1hr
in
rain 24hr
in
rain mn
in
humidity
%
barometer
mb
20260506204526 55 309 0.0 4.3 0.00 0.70 0.22 56 1012.6
20260506203023 55 328 0.0 3.5 0.00 0.70 0.22 58 1012.5
20260506201523 55 315 0.0 3.5 0.00 0.70 0.22 58 1012.4
20260506200022 55 355 0.0 4.3 0.00 0.70 0.22 55 1012.3
20260506194522 55 315 0.0 0.9 0.00 0.70 0.22 55 1012.4
20260506193021 56 338 0.9 7.0 0.00 0.70 0.22 56 1012.4
20260506191520 57 317 0.0 2.6 0.00 0.70 0.22 56 1012.1
20260506190020 57 18 1.7 7.0 0.00 0.70 0.22 57 1012.0
20260506184537 57 263 0.0 3.5 0.00 0.70 0.22 56 1012.2
20260506183029 57 284 0.0 4.3 0.00 0.70 0.22 55 1012.3
20260506181519 57 334 0.0 5.2 0.00 0.70 0.22 55 1012.3
20260506180016 56 26 0.0 4.3 0.00 0.70 0.22 59 1012.1
20260506174515 56 24 0.9 3.5 0.00 0.70 0.22 59 1012.6
20260506173013 56 321 0.9 4.3 0.00 0.70 0.22 58 1012.3
20260506171509 55 302 0.0 7.0 0.00 0.70 0.22 62 1012.4
20260506170008 55 327 0.0 3.5 0.00 0.70 0.22 63 1012.2
20260506164509 54 312 0.9 4.3 0.00 0.70 0.22 58 1012.3
20260506163005 53 311 0.0 6.1 0.00 0.70 0.22 65 1012.3
20260506161500 53 355 0.9 4.3 0.00 0.70 0.22 63 1012.2
20260506160108 52 350 0.9 3.5 0.00 0.70 0.22 67 1012.0
20260506154603 52 5 0.0 3.5 0.00 0.70 0.22 70 1011.9
20260506153111 52 296 0.0 0.0 0.00 0.70 0.22 70 1011.9
20260506151551 51 342 0.0 3.5 0.00 0.70 0.22 72 1011.5
20260506150057 50 278 0.0 2.6 0.00 0.70 0.22 73 1011.5
20260506144555 49 302 0.0 3.5 0.00 0.70 0.22 75 1011.5
20260506143047 49 340 0.0 3.5 0.00 0.70 0.22 76 1011.1
20260506141545 48 5 0.9 4.3 0.00 0.70 0.22 76 1010.9
20260506140044 47 9 0.9 4.3 0.00 0.70 0.22 75 1010.8
20260506134541 47 299 0.0 3.5 0.00 0.70 0.22 71 1010.5
20260506133039 47 277 0.9 3.5 0.00 0.70 0.22 64 1010.5
20260506131541 47 324 0.0 2.6 0.00 0.70 0.22 61 1010.6
20260506130037 47 334 0.0 0.0 0.00 0.70 0.22 63 1010.4
20260506124534 46 337 0.9 3.5 0.00 0.70 0.22 61 1010.0
20260506123033 46 336 0.0 0.0 0.00 0.70 0.22 53 1009.2
20260506121530 46 336 0.0 0.0 0.01 0.70 0.22 47 1009.4
20260506120029 46 13 0.0 2.6 0.01 0.70 0.22 44 1009.1
20260506114529 46 355 0.0 0.0 0.01 0.70 0.22 42 1009.0
20260506113036 46 360 0.0 0.0 0.01 0.70 0.22 42 1008.6
20260506111527 46 338 0.0 1.7 0.00 0.69 0.21 42 1008.0
20260506110023 46 13 0.0 1.7 0.00 0.69 0.21 43 1008.2
20260506104525 46 44 0.0 2.6 0.00 0.69 0.21 43 1008.2
20260506101516 46 21 0.0 0.0 0.00 0.69 0.21 43 1007.2
20260506100016 46 22 0.0 2.6 0.01 0.69 0.21 43 1006.9
20260506094516 46 56 0.0 3.5 0.02 0.69 0.21 44 1006.6
20260506093015 46 30 0.9 3.5 0.03 0.69 0.21 44 1007.3
20260506091515 46 54 1.7 4.3 0.04 0.69 0.21 44 1006.9
20260506090020 46 36 1.7 4.3 0.04 0.68 0.20 43 1007.1
20260506084509 47 49 0.9 3.5 0.03 0.67 0.19 42 1007.2
20260506083006 47 48 1.7 3.5 0.02 0.65 0.17 42 1007.0
20260506081503 47 341 1.7 3.5 0.04 0.65 0.17 42 1007.0
20260506073058 48 22 0.0 3.5 0.08 0.63 0.15 42 1006.3
20260506071603 48 355 0.0 3.5 0.07 0.61 0.13 42 1006.1
20260506061547 50 304 0.0 2.6 0.05 0.54 0.06 40 1005.9
20260506044539 51 36 0.0 1.7 0.02 0.49 0.01 42 1006.4
20260506043037 51 28 0.0 0.0 0.05 0.49 0.01 43 1006.5
20260506041535 50 51 0.0 2.6 0.09 0.49 0.01 44 1006.7
20260506040032 51 355 0.9 2.6 0.11 0.48 0.00 46 1006.6
20260506034532 51 308 0.0 0.0 0.12 0.47 0.47 48 1006.9
20260506033026 53 288 0.0 2.6 0.11 0.44 0.44 52 1007.2
20260506031522 56 311 0.0 8.7 0.09 0.40 0.40 52 1007.2
20260506030035 58 246 0.0 0.9 0.09 0.37 0.37 38 1007.1
20260506024544 58 215 0.0 0.0 0.11 0.35 0.35 40 1007.0
20260506023018 58 208 0.0 2.6 0.10 0.33 0.33 40 1007.1
20260506021517 59 211 0.0 3.5 0.08 0.30 0.30 39 1007.2
20260506020016 59 257 1.7 4.3 0.05 0.27 0.27 37 1007.2
20260506014514 59 194 0.0 0.0 0.03 0.24 0.24 36 1007.2
20260506013022 59 215 0.0 0.0 0.03 0.23 0.23 36 1007.0
20260506011513 59 181 0.0 1.7 0.03 0.22 0.22 37 1006.8
20260506010012 59 211 0.0 1.7 0.04 0.22 0.22 37 1006.7
20260506004512 59 195 0.0 4.3 0.03 0.21 0.21 37 1006.9
20260506003011 59 221 0.0 0.0 0.02 0.20 0.20 38 1006.8
20260506001510 59 211 0.0 0.0 0.01 0.19 0.19 39 1006.7
20260506000009 59 195 0.0 0.0 0.00 0.18 0.18 40 1006.8
20260505234509 59 225 0.0 0.0 0.01 0.18 0.18 42 1006.7
20260505233012 59 238 0.0 0.0 0.03 0.18 0.18 43 1006.8
20260505231507 59 227 0.0 0.0 0.07 0.18 0.18 44 1007.0
20260505230022 59 221 0.0 0.0 0.10 0.18 0.18 46 1007.1
20260505224606 59 248 0.0 0.0 0.16 0.17 0.17 47 1007.1
20260505223003 59 211 0.0 3.5 0.15 0.15 0.15 50 1007.4
20260505221502 59 250 0.0 5.2 0.11 0.11 0.11 56 1007.3
20260505220108 59 200 1.7 6.1 0.08 0.08 0.08 67 1007.2
20260505214558 64 281 2.6 12.2 0.00 0.00 0.00 72 1006.9
20260505213101 68 182 2.6 10.4 0.00 0.00 0.00 62 1006.1
20260505211556 69 217 2.6 9.6 0.00 0.00 0.00 62 1006.1
20260505210055 68 215 1.7 7.0 0.00 0.00 0.00 63 1006.0